Colby, KS

1:29 AM CDT on April 24, 2017 (GMT -0500)
Shaltz

Weather History for KCBK - May, 2014

Change the Weather History Date:

Sunday, May 18, 2014

  Actual Average (KGLD) Record (KGLD)
Temperature  
Mean Temperature 61 °F -  
Max Temperature 78 °F 74 °F 98 °F (1996)
Min Temperature 44 °F 47 °F 29 °F (1930)
Degree Days  
Heating Degree Days 4    
Growing Degree Days 11 (Base 50)    
Moisture  
Dew Point 52 °F    
Average Humidity 72    
Maximum Humidity 100    
Minimum Humidity 44    
Precipitation  
Precipitation 0.00 in - - ()
Sea Level Pressure  
Sea Level Pressure 29.91 in    
Wind  
Wind Speed 15 mph (SSE)    
Max Wind Speed 30 mph    
Max Gust Speed 40 mph    
Visibility 10 miles    
Events Rain    
Averages and records for this station are not official NWS values.
T = Trace of Precipitation, MM = Missing Value Source: NWS Daily Summary

Daily Weather History Graph

Daily Weather History Graph

Search for Another Location

Airport or City:

Trip Planner

Search our weather history database for the weather conditions in past years. The results will help you decide how hot, cold, wet, or windy it might be!

Date:

Astronomy

May. 18, 2014 Rise Set
Actual Time 6:27 AM CDT 8:54 PM CDT
Civil Twilight 5:57 AM CDT 9:24 PM CDT
Nautical Twilight 5:19 AM CDT 10:02 PM CDT
Astronomical Twilight 4:37 AM CDT 10:44 PM CDT
Moon No Moon Rise 10:18 AM CDT (5/18)
Length of Visible Light 15h 27m
Length of Day
14h 26m
Waning Gibbous, 81% of the Moon is Illuminated
May 18
Waning Gibbous
May 21
Last Quarter
May 28
New
Jun 5
First Quarter
Jun 12
Full

Hourly Weather History & Observations

Time (CDT) Temp. Windchill Dew Point Humidity Pressure Visibility Wind Dir Wind Speed Gust Speed Precip Events Conditions
12:10 AM 48.2 °F - 48.2 °F 100% 30.14 in 10.0 mi Calm Calm - N/A   Mostly Cloudy
12:30 AM 48.2 °F - 48.2 °F 100% 30.15 in 4.0 mi Calm Calm - N/A Rain Heavy Rain
12:50 AM 48.2 °F - 48.2 °F 100% 30.10 in 3.0 mi SSE 15.0 mph - N/A Rain Rain
1:10 AM 48.2 °F - 48.2 °F 100% 30.09 in 10.0 mi South 15.0 mph - N/A   Light Drizzle
1:30 AM 48.2 °F - 48.2 °F 100% 30.08 in 10.0 mi SSE 18.4 mph - N/A   Mostly Cloudy
1:50 AM 48.2 °F - 48.2 °F 100% 30.07 in 10.0 mi SSE 12.7 mph 20.7 mph N/A   Mostly Cloudy
2:10 AM 46.4 °F 40.7 °F 46.4 °F 100% 30.07 in 10.0 mi SSE 12.7 mph - N/A   Scattered Clouds
2:30 AM 46.4 °F 42.4 °F 46.4 °F 100% 30.07 in 10.0 mi SSE 8.1 mph - N/A   Scattered Clouds
2:50 AM 46.4 °F 42.9 °F 46.4 °F 100% 30.06 in 10.0 mi SE 6.9 mph - N/A   Scattered Clouds
3:10 AM 44.6 °F 40.7 °F 44.6 °F 100% 30.06 in 7.0 mi SE 6.9 mph - N/A   Clear
3:30 AM 46.4 °F 41.1 °F 46.4 °F 100% 30.05 in 10.0 mi SE 11.5 mph - N/A   Clear
3:50 AM 46.4 °F 41.5 °F 46.4 °F 100% 30.05 in 10.0 mi SSE 10.4 mph - N/A   Clear
4:10 AM 46.4 °F 41.5 °F 46.4 °F 100% 30.04 in 10.0 mi SSE 10.4 mph - N/A   Clear
4:30 AM 46.4 °F 41.5 °F 46.4 °F 100% 30.04 in 10.0 mi SSE 10.4 mph - N/A   Clear
4:50 AM 46.4 °F 41.5 °F 44.6 °F 93% 30.04 in 10.0 mi SE 10.4 mph - N/A   Clear
5:30 AM 44.6 °F 38.8 °F 44.6 °F 100% 30.02 in 10.0 mi SSE 11.5 mph - N/A   Clear
5:50 AM 46.4 °F 40.4 °F 44.6 °F 93% 30.02 in 10.0 mi SSE 13.8 mph - N/A   Clear
6:10 AM 46.4 °F 40.7 °F 44.6 °F 93% 30.02 in 10.0 mi SSE 12.7 mph - N/A   Clear
6:30 AM 46.4 °F 40.4 °F 46.4 °F 100% 30.01 in 10.0 mi SSE 13.8 mph - N/A   Clear
6:50 AM 46.4 °F 39.8 °F 46.4 °F 100% 30.01 in 10.0 mi SSE 16.1 mph - N/A   Clear
7:10 AM 48.2 °F - 46.4 °F 93% 30.02 in 10.0 mi SSE 16.1 mph 21.9 mph N/A   Clear
7:30 AM 50.0 °F - 50.0 °F 100% 30.02 in 10.0 mi South 18.4 mph 23.0 mph N/A   Clear
7:50 AM 51.8 °F - 50.0 °F 94% 30.01 in 10.0 mi SSE 19.6 mph 25.3 mph N/A   Clear
8:10 AM 53.6 °F - 50.0 °F 88% 30.01 in 10.0 mi South 19.6 mph 25.3 mph N/A   Clear
8:30 AM 53.6 °F - 51.8 °F 94% 30.01 in 10.0 mi South 23.0 mph 28.8 mph N/A   Clear
8:50 AM 55.4 °F - 51.8 °F 88% 30.00 in 10.0 mi South 18.4 mph 27.6 mph N/A   Clear
9:10 AM 55.4 °F - 51.8 °F 88% 30.00 in 10.0 mi South 23.0 mph 29.9 mph N/A   Clear
9:30 AM 55.4 °F - 50.0 °F 82% 30.00 in 10.0 mi South 25.3 mph 29.9 mph N/A   Clear
9:50 AM 59.0 °F - 50.0 °F 72% 30.00 in 10.0 mi SSE 19.6 mph 29.9 mph N/A   Clear
10:10 AM 60.8 °F - 51.8 °F 72% 29.98 in 10.0 mi SSE 25.3 mph 31.1 mph N/A   Clear
10:30 AM 62.6 °F - 51.8 °F 68% 29.98 in 10.0 mi South 29.9 mph 40.3 mph N/A   Clear
11:10 AM 64.4 °F - 53.6 °F 68% 29.94 in 10.0 mi South 28.8 mph 36.8 mph N/A   Clear
11:30 AM 66.2 °F - 53.6 °F 64% 29.94 in 10.0 mi South 27.6 mph 35.7 mph N/A   Clear
11:55 AM 66.2 °F - 55.4 °F 68% 29.94 in 10.0 mi South 24.2 mph 34.5 mph N/A   Clear
12:10 PM 68.0 °F - 55.4 °F 64% 29.93 in 10.0 mi South 24.2 mph 31.1 mph N/A   Clear
12:30 PM 68.0 °F - 55.4 °F 64% 29.92 in 10.0 mi South 25.3 mph 35.7 mph N/A   Clear
12:50 PM 69.8 °F - 55.4 °F 60% 29.91 in 10.0 mi South 23.0 mph 35.7 mph N/A   Clear
1:10 PM 69.8 °F - 55.4 °F 60% 29.90 in 10.0 mi South 27.6 mph 34.5 mph N/A   Clear
1:30 PM 71.6 °F - 53.6 °F 53% 29.89 in 10.0 mi South 24.2 mph 34.5 mph N/A   Clear
1:50 PM 71.6 °F - 53.6 °F 53% 29.89 in 10.0 mi South 26.5 mph 33.4 mph N/A   Clear
2:10 PM 73.4 °F - 55.4 °F 53% 29.88 in 10.0 mi South 27.6 mph 32.2 mph N/A   Clear
2:30 PM 73.4 °F - 53.6 °F 50% 29.87 in 10.0 mi SSE 21.9 mph 33.4 mph N/A   Clear
2:50 PM 73.4 °F - 55.4 °F 53% 29.86 in 10.0 mi South 24.2 mph 34.5 mph N/A   Clear
3:10 PM 75.2 °F - 55.4 °F 50% 29.85 in 10.0 mi SSE 25.3 mph 35.7 mph N/A   Clear
3:30 PM 77.0 °F - 55.4 °F 47% 29.84 in 10.0 mi South 20.7 mph 33.4 mph N/A   Clear
3:50 PM 77.0 °F - 55.4 °F 47% 29.83 in 10.0 mi SSE 24.2 mph 31.1 mph N/A   Clear
4:10 PM 77.0 °F - 55.4 °F 47% 29.82 in 10.0 mi South 21.9 mph 33.4 mph N/A   Clear
4:30 PM 77.0 °F - 55.4 °F 47% 29.81 in 10.0 mi SSE 25.3 mph 32.2 mph N/A   Clear
4:50 PM 78.8 °F - 55.4 °F 44% 29.81 in 10.0 mi South 25.3 mph 32.2 mph N/A   Clear
5:10 PM 77.0 °F - 55.4 °F 47% 29.80 in 10.0 mi South 24.2 mph 32.2 mph N/A   Clear
5:30 PM 78.8 °F - 55.4 °F 44% 29.79 in 10.0 mi SSE 27.6 mph 32.2 mph N/A   Clear
5:50 PM 77.0 °F - 55.4 °F 47% 29.79 in 10.0 mi SSE 25.3 mph 36.8 mph N/A   Clear
6:10 PM 77.0 °F - 53.6 °F 44% 29.79 in 10.0 mi South 21.9 mph 32.2 mph N/A   Clear
6:30 PM 77.0 °F - 53.6 °F 44% 29.78 in 10.0 mi South 23.0 mph 32.2 mph N/A   Clear
6:50 PM 77.0 °F - 53.6 °F 44% 29.77 in 10.0 mi South 20.7 mph 32.2 mph N/A   Clear
7:10 PM 75.2 °F - 53.6 °F 47% 29.77 in 10.0 mi SSE 23.0 mph 29.9 mph N/A   Clear
7:30 PM 73.4 °F - 53.6 °F 50% 29.77 in 10.0 mi South 21.9 mph 27.6 mph N/A   Clear
7:50 PM 73.4 °F - 53.6 °F 50% 29.76 in 10.0 mi South 18.4 mph 24.2 mph N/A   Clear
8:10 PM 73.4 °F - 53.6 °F 50% 29.76 in 10.0 mi SSE 18.4 mph 26.5 mph N/A   Clear
8:30 PM 71.6 °F - 53.6 °F 53% 29.76 in 10.0 mi SSE 16.1 mph 20.7 mph N/A   Clear
8:50 PM 71.6 °F - 53.6 °F 53% 29.75 in 10.0 mi SSE 18.4 mph - N/A   Clear
9:10 PM 69.8 °F - 53.6 °F 56% 29.75 in 10.0 mi SSE 15.0 mph - N/A   Clear
9:30 PM 69.8 °F - 53.6 °F 56% 29.74 in 10.0 mi SSE 16.1 mph - N/A   Clear
9:50 PM 68.0 °F - 53.6 °F 60% 29.74 in 10.0 mi SSE 16.1 mph 19.6 mph N/A   Clear
10:10 PM 68.0 °F - 53.6 °F 60% 29.73 in 10.0 mi SSE 16.1 mph 21.9 mph N/A   Clear
10:30 PM 68.0 °F - 53.6 °F 60% 29.73 in 10.0 mi SSE 17.3 mph 21.9 mph N/A   Clear
10:50 PM 68.0 °F - 53.6 °F 60% 29.73 in 10.0 mi SE 18.4 mph 25.3 mph N/A   Clear
11:10 PM 66.2 °F - 55.4 °F 68% 29.72 in 10.0 mi SE 18.4 mph 25.3 mph N/A   Clear
11:30 PM 64.4 °F - 55.4 °F 73% 29.72 in 10.0 mi SE 18.4 mph 23.0 mph N/A   Clear
11:50 PM 64.4 °F - 55.4 °F 73% 29.71 in 10.0 mi SSE 18.4 mph 24.2 mph N/A   Clear